Weather History for Fairhope, AL

Change the Weather History Date:

Friday, February 22, 2013

  Actual Average (KBFM) Record (KBFM)
Temperature  
Mean Temperature 68 °F -  
Max Temperature 69 °F 62 °F 78 °F (2006)
Min Temperature 66 °F 45 °F 30 °F (1999)
Cooling Degree Days 2    
Growing Degree Days 18 (Base 50)    
Moisture  
Dew Point 67 °F    
Average Humidity 95    
Maximum Humidity 100    
Minimum Humidity 83    
Precipitation  
Precipitation 0.20 in - - ()
Sea Level Pressure  
Sea Level Pressure 29.92 in    
Wind  
Wind Speed 8 mph (ENE)    
Max Wind Speed 15 mph    
Max Gust Speed 20 mph    
Visibility 5 miles    
Events Fog , Rain    
Averages and records for this station are not official NWS values.
T = Trace of Precipitation, MM = Missing Value Source: NWS Daily Summary

Daily Weather History Graph

Daily Weather History Graph

Search for Another Location

Airport:

Trip Planner

Search our weather history database for the weather conditions in past years. The results will help you decide how hot, cold, wet, or windy it might be!

Date:

Astronomy

Feb. 22, 2013 Rise Set
Actual Time 6:24 AM CST 5:45 PM CST
Civil Twilight 6:00 AM CST 6:09 PM CST
Nautical Twilight 5:32 AM CST 6:37 PM CST
Astronomical Twilight 5:04 AM CST 7:05 PM CST
Moon 3:04 PM CST (2/22) 4:01 AM CST (2/22)
Length of Visible Light 12h 09m
Length of Day
11h 20m
Waxing Gibbous, 90% of the Moon is Illuminated
Feb 22
Waxing Gibbous
Feb 25
Full
Mar 4
Last Quarter
Mar 11
New
Mar 19
First Quarter

Hourly Weather History & Observations

Time (CST) Temp. Dew Point Humidity Pressure Visibility Wind Dir Wind Speed Gust Speed Precip Events Conditions
12:15 AM 69.8 °F 68.0 °F 94% 29.92 in 7.0 mi SSE 11.5 mph 18.4 mph N/A   Overcast
12:35 AM 69.8 °F 68.0 °F 94% 29.92 in 7.0 mi SSE 13.8 mph 19.6 mph N/A   Overcast
12:55 AM 69.8 °F 68.0 °F 94% 29.91 in 7.0 mi SSE 15.0 mph - N/A   Overcast
1:15 AM 69.8 °F 68.0 °F 94% 29.90 in 7.0 mi SSE 11.5 mph - N/A   Overcast
1:35 AM 69.8 °F 68.0 °F 94% 29.90 in 7.0 mi SSE 13.8 mph 19.6 mph N/A   Overcast
1:55 AM 69.8 °F 68.0 °F 94% 29.90 in 5.0 mi SSE 13.8 mph - N/A   Overcast
2:15 AM 69.8 °F 68.0 °F 94% 29.89 in 7.0 mi SSE 12.7 mph - N/A   Overcast
2:35 AM 69.8 °F 68.0 °F 94% 29.89 in 7.0 mi SSE 13.8 mph - N/A   Overcast
2:55 AM 69.8 °F 68.0 °F 94% 29.89 in 5.0 mi SSE 12.7 mph - N/A   Overcast
3:15 AM 69.8 °F 68.0 °F 94% 29.88 in 5.0 mi SSE 12.7 mph - N/A   Overcast
3:35 AM 69.8 °F 68.0 °F 94% 29.87 in 5.0 mi SSE 11.5 mph 18.4 mph N/A   Overcast
3:55 AM 69.8 °F 68.0 °F 94% 29.87 in 5.0 mi SSE 11.5 mph - N/A   Overcast
4:15 AM 69.8 °F 68.0 °F 94% 29.88 in 5.0 mi SSE 12.7 mph - N/A   Overcast
4:35 AM 69.8 °F 68.0 °F 94% 29.89 in 5.0 mi SSE 9.2 mph - N/A   Overcast
4:55 AM 68.0 °F 68.0 °F 100% 29.90 in 4.0 mi WSW 6.9 mph 19.6 mph N/A   Overcast
5:15 AM 68.0 °F 68.0 °F 100% 29.90 in 5.0 mi Calm Calm - N/A Rain Light Rain
5:35 AM 68.0 °F 66.2 °F 94% 29.90 in 3.0 mi SW 3.5 mph - 0.01 in Rain Light Rain
5:55 AM 68.0 °F 66.2 °F 94% 29.91 in 4.0 mi Calm Calm - 0.01 in   Overcast
6:15 AM 68.0 °F 66.2 °F 94% 29.92 in 5.0 mi WNW 3.5 mph - N/A Rain Light Rain
6:35 AM 66.2 °F 66.2 °F 100% 29.92 in 4.0 mi Calm Calm - 0.07 in Rain Rain
6:55 AM 66.2 °F 64.4 °F 94% 29.93 in 1.5 mi Calm Calm - 0.07 in   Overcast
7:15 AM 66.2 °F 66.2 °F 100% 29.94 in 3.0 mi NNE 5.8 mph - N/A   Overcast
7:35 AM 68.0 °F 66.2 °F 94% 29.94 in 5.0 mi NNE 4.6 mph - N/A   Overcast
7:55 AM 68.0 °F 68.0 °F 100% 29.95 in 7.0 mi NNE 6.9 mph - N/A   Overcast
8:15 AM 69.8 °F 68.0 °F 94% 29.95 in 7.0 mi NNE 8.1 mph - N/A   Mostly Cloudy
8:35 AM 68.0 °F 66.2 °F 94% 29.96 in 7.0 mi NNE 9.2 mph - N/A   Mostly Cloudy
8:55 AM 68.0 °F 66.2 °F 94% 29.97 in 7.0 mi NNW 5.8 mph - N/A   Overcast
9:15 AM 69.8 °F 66.2 °F 88% 29.97 in 7.0 mi North 4.6 mph - N/A   Overcast
9:55 AM 69.8 °F 66.2 °F 88% 29.96 in 7.0 mi NNE 12.7 mph - N/A   Overcast
10:15 AM 68.0 °F 64.4 °F 88% 29.97 in 7.0 mi North 10.4 mph - N/A   Overcast
10:35 AM 68.0 °F 64.4 °F 88% 29.98 in 7.0 mi NNE 5.8 mph - N/A   Overcast
10:55 AM 68.0 °F 64.4 °F 88% 29.98 in 7.0 mi NE 5.8 mph - N/A   Overcast
11:15 AM 68.0 °F 64.4 °F 88% 29.97 in 5.0 mi NE 5.8 mph - N/A   Overcast
11:35 AM 68.0 °F 64.4 °F 88% 29.97 in 7.0 mi NE 8.1 mph - N/A   Overcast
11:55 AM 69.8 °F 66.2 °F 88% 29.97 in 7.0 mi NNE 6.9 mph - N/A   Overcast
12:15 PM 68.0 °F 64.4 °F 88% 29.96 in 7.0 mi NNE 10.4 mph - N/A   Overcast
12:35 PM 69.8 °F 64.4 °F 83% 29.95 in 7.0 mi NNE 9.2 mph - N/A   Overcast
12:55 PM 68.0 °F 64.4 °F 88% 29.95 in 3.0 mi NE 4.6 mph - 0.05 in Rain Heavy Rain
1:15 PM 68.0 °F 68.0 °F 100% 29.93 in 5.0 mi NE 6.9 mph - N/A Rain Light Rain
1:35 PM 68.0 °F 66.2 °F 94% 29.92 in 7.0 mi ENE 5.8 mph - N/A Rain Light Rain
1:55 PM 68.0 °F 66.2 °F 94% 29.92 in 7.0 mi NE 4.6 mph - N/A Rain Light Rain
2:15 PM 68.0 °F 68.0 °F 100% 29.92 in 5.0 mi North 4.6 mph - N/A Rain Light Rain
2:35 PM 69.8 °F 69.8 °F 100% 29.91 in 5.0 mi NE 5.8 mph - N/A Rain Light Rain
2:55 PM 69.8 °F 68.0 °F 94% 29.91 in 7.0 mi NE 5.8 mph - N/A   Overcast
3:15 PM 69.8 °F 68.0 °F 94% 29.91 in 7.0 mi ENE 4.6 mph - N/A   Overcast
3:35 PM 69.8 °F 68.0 °F 94% 29.89 in 10.0 mi East 4.6 mph - 0.01 in Rain Light Rain
3:55 PM 69.8 °F 68.0 °F 94% 29.90 in 5.0 mi East 3.5 mph - 0.01 in   Overcast
4:15 PM 69.8 °F 68.0 °F 94% 29.89 in 5.0 mi Calm Calm - N/A   Overcast
4:35 PM 69.8 °F 68.0 °F 94% 29.89 in 2.5 mi Calm Calm - 0.03 in Rain Heavy Rain
4:55 PM 69.8 °F 68.0 °F 94% 29.89 in 5.0 mi Calm Calm - 0.04 in   Light Drizzle
5:15 PM 69.8 °F 68.0 °F 94% 29.90 in 4.0 mi Calm Calm - 0.01 in Rain Rain
5:35 PM 69.8 °F 68.0 °F 94% 29.91 in 3.0 mi Calm Calm - 0.01 in   Overcast
5:55 PM 69.8 °F 68.0 °F 94% 29.92 in 3.0 mi Calm Calm - 0.01 in   Light Drizzle
6:15 PM 68.0 °F 68.0 °F 100% 29.91 in 4.0 mi Calm Calm - N/A Rain Rain
6:35 PM 68.0 °F 68.0 °F 100% 29.92 in 3.0 mi Calm Calm - N/A Rain Rain
6:55 PM 68.0 °F 68.0 °F 100% 29.92 in 3.0 mi Calm Calm - 0.01 in Rain Light Rain
7:15 PM 68.0 °F 68.0 °F 100% 29.91 in 3.0 mi Calm Calm - N/A   Overcast
7:35 PM 68.0 °F 68.0 °F 100% 29.90 in 5.0 mi Calm Calm - N/A   Overcast
7:55 PM 68.0 °F 68.0 °F 100% 29.90 in 7.0 mi Calm Calm - N/A   Overcast
8:15 PM 68.0 °F 68.0 °F 100% 29.90 in 7.0 mi Calm Calm - N/A   Overcast
8:35 PM 68.0 °F 68.0 °F 100% 29.90 in 5.0 mi Calm Calm - N/A   Overcast
8:55 PM 68.0 °F 68.0 °F 100% 29.90 in 3.0 mi Calm Calm - N/A   Overcast
9:15 PM 68.0 °F 68.0 °F 100% 29.91 in 1.0 mi Calm Calm - N/A   Overcast
9:35 PM 68.0 °F 68.0 °F 100% 29.91 in 0.5 mi Calm Calm - N/A Rain Light Rain
9:55 PM 68.0 °F 68.0 °F 100% 29.91 in 0.8 mi Calm Calm - N/A Rain Rain
10:15 PM 68.0 °F 68.0 °F 100% 29.91 in 1.0 mi Calm Calm - N/A   Overcast
10:35 PM 68.0 °F 68.0 °F 100% 29.90 in 0.2 mi Calm Calm - N/A Fog Fog
10:55 PM 68.0 °F 66.2 °F 94% 29.90 in 0.2 mi Calm Calm - N/A Fog Fog
11:15 PM 68.0 °F 68.0 °F 100% 29.89 in 0.2 mi Calm Calm - N/A Fog Fog
11:35 PM 66.2 °F 66.2 °F 100% 29.89 in 0.2 mi Calm Calm - N/A Fog Fog
11:55 PM 66.2 °F 64.4 °F 94% 29.90 in 0.2 mi Calm Calm - N/A Rain Rain